Time,TemperatureF,DewpointF,PressureIn,WindDirection,WindDirectionDegrees,WindSpeedMPH,WindSpeedGustMPH,Humidity,HourlyPrecipIn,Conditions,Clouds,dailyrainin,SoftwareType,DateUTC
2013-07-04 00:03:00,51.3,40.7,29.87,NW,316,4.0,4.0,67,0.00,,---,0.00,VWS V14.01,2013-07-04 06:03:00,
2013-07-04 00:09:00,50.8,41.0,29.86,NW,316,5.0,6.0,69,0.00,,---,0.00,VWS V14.01,2013-07-04 06:09:00,
2013-07-04 00:14:00,50.2,41.2,29.87,NW,316,5.0,5.0,71,0.00,,---,0.00,VWS V14.01,2013-07-04 06:14:00,
2013-07-04 00:19:00,49.8,40.8,29.86,NW,316,7.0,7.0,71,0.00,,---,0.00,VWS V14.01,2013-07-04 06:19:00,
2013-07-04 00:24:00,49.8,40.8,29.86,NW,316,0.0,1.0,71,0.00,,---,0.00,VWS V14.01,2013-07-04 06:24:00,
2013-07-04 00:29:00,49.6,41.3,29.86,NW,316,3.0,3.0,73,0.00,,---,0.00,VWS V14.01,2013-07-04 06:29:00,
2013-07-04 00:34:00,49.4,40.4,29.86,NW,316,0.0,0.0,71,0.00,,---,0.00,VWS V14.01,2013-07-04 06:34:00,
2013-07-04 00:39:00,49.6,41.0,29.86,NW,316,0.0,2.0,72,0.00,,---,0.00,VWS V14.01,2013-07-04 06:39:00,
2013-07-04 00:44:00,49.9,40.2,29.86,NW,316,5.0,5.0,69,0.00,,---,0.00,VWS V14.01,2013-07-04 06:44:00,
2013-07-04 00:49:00,50.8,39.9,29.86,NW,316,0.0,4.0,66,0.00,,---,0.00,VWS V14.01,2013-07-04 06:49:00,
2013-07-04 00:54:00,51.1,40.5,29.85,NW,316,0.0,0.0,67,0.00,,---,0.00,VWS V14.01,2013-07-04 06:54:00,
2013-07-04 00:59:00,51.1,40.5,29.86,NW,316,1.0,2.0,67,0.00,,---,0.00,VWS V14.01,2013-07-04 06:59:00,
2013-07-04 01:04:00,50.8,40.2,29.86,NW,316,8.0,8.0,67,0.00,,---,0.00,VWS V14.01,2013-07-04 07:04:00,
2013-07-04 01:09:00,50.4,39.9,29.86,NW,315,6.0,6.0,67,0.00,,---,0.00,VWS V14.01,2013-07-04 07:09:00,
2013-07-04 01:14:00,50.9,39.6,29.86,NW,309,4.0,4.0,65,0.00,,---,0.00,VWS V14.01,2013-07-04 07:14:00,
2013-07-04 01:19:00,51.3,40.0,29.86,NW,309,0.0,0.0,65,0.00,,---,0.00,VWS V14.01,2013-07-04 07:19:00,
2013-07-04 01:24:00,51.3,39.5,29.86,NW,309,0.0,0.0,64,0.00,,---,0.00,VWS V14.01,2013-07-04 07:24:00,
2013-07-04 01:29:00,51.2,40.6,29.86,NW,309,0.0,0.0,67,0.00,,---,0.00,VWS V14.01,2013-07-04 07:29:00,
2013-07-04 01:34:00,50.7,40.5,29.86,NW,309,0.0,1.0,68,0.00,,---,0.00,VWS V14.01,2013-07-04 07:34:00,
2013-07-04 01:39:00,50.3,40.2,29.86,NW,309,0.0,3.0,68,0.00,,---,0.00,VWS V14.01,2013-07-04 07:39:00,
2013-07-04 01:44:00,50.0,39.9,29.86,NW,309,6.0,6.0,68,0.00,,---,0.00,VWS V14.01,2013-07-04 07:44:00,
2013-07-04 01:49:00,49.8,39.7,29.86,NW,309,0.0,0.0,68,0.00,,---,0.00,VWS V14.01,2013-07-04 07:49:00,
2013-07-04 01:54:00,49.7,40.3,29.85,NW,309,0.0,0.0,70,0.00,,---,0.00,VWS V14.01,2013-07-04 07:54:00,
2013-07-04 01:59:00,49.5,40.1,29.85,NW,309,0.0,0.0,70,0.00,,---,0.00,VWS V14.01,2013-07-04 07:59:00,
2013-07-04 02:04:00,49.2,40.2,29.85,NW,309,3.0,4.0,71,0.00,,---,0.00,VWS V14.01,2013-07-04 08:04:00,
2013-07-04 02:09:00,48.8,40.5,29.85,NW,309,5.0,5.0,73,0.00,,---,0.00,VWS V14.01,2013-07-04 08:09:00,
2013-07-04 02:14:00,48.5,39.9,29.85,NW,309,5.0,6.0,72,0.00,,---,0.00,VWS V14.01,2013-07-04 08:14:00,
2013-07-04 02:19:00,48.3,40.1,29.85,NW,310,6.0,7.0,73,0.00,,---,0.00,VWS V14.01,2013-07-04 08:19:00,
2013-07-04 02:24:00,48.5,39.5,29.85,NW,312,3.0,7.0,71,0.00,,---,0.00,VWS V14.01,2013-07-04 08:24:00,
2013-07-04 02:29:00,48.5,40.6,29.85,NW,311,2.0,3.0,74,0.00,,---,0.00,VWS V14.01,2013-07-04 08:29:00,
2013-07-04 02:34:00,48.2,40.7,29.84,NW,311,3.0,4.0,75,0.00,,---,0.00,VWS V14.01,2013-07-04 08:34:00,
2013-07-04 02:39:00,47.8,41.0,29.84,NW,312,0.0,0.0,77,0.00,,---,0.00,VWS V14.01,2013-07-04 08:39:00,
2013-07-04 02:44:00,47.5,40.7,29.84,NW,312,3.0,3.0,77,0.00,,---,0.00,VWS V14.01,2013-07-04 08:44:00,
2013-07-04 02:49:00,47.2,40.7,29.84,NW,312,4.0,4.0,78,0.00,,---,0.00,VWS V14.01,2013-07-04 08:49:00,
2013-07-04 02:54:00,47.3,40.1,29.84,NW,311,3.0,3.0,76,0.00,,---,0.00,VWS V14.01,2013-07-04 08:54:00,
2013-07-04 02:59:00,47.3,40.5,29.84,NW,311,0.0,0.0,77,0.00,,---,0.00,VWS V14.01,2013-07-04 08:59:00,
2013-07-04 03:04:00,47.1,40.6,29.83,NW,312,1.0,2.0,78,0.00,,---,0.00,VWS V14.01,2013-07-04 09:04:00,
2013-07-04 03:09:00,46.7,40.5,29.83,NW,311,0.0,1.0,79,0.00,,---,0.00,VWS V14.01,2013-07-04 09:09:00,
2013-07-04 03:14:00,46.4,40.2,29.83,NW,311,4.0,4.0,79,0.00,,---,0.00,VWS V14.01,2013-07-04 09:14:00,
2013-07-04 03:19:00,46.3,40.2,29.83,NW,311,0.0,0.0,79,0.00,,---,0.00,VWS V14.01,2013-07-04 09:19:00,
2013-07-04 03:24:00,46.4,39.9,29.83,NW,311,0.0,0.0,78,0.00,,---,0.00,VWS V14.01,2013-07-04 09:24:00,
2013-07-04 03:29:00,46.5,39.7,29.83,NW,312,0.0,0.0,77,0.00,,---,0.00,VWS V14.01,2013-07-04 09:29:00,
2013-07-04 03:34:00,46.6,39.8,29.83,NW,312,0.0,0.0,77,0.00,,---,0.00,VWS V14.01,2013-07-04 09:34:00,
2013-07-04 03:39:00,46.7,40.2,29.82,NW,311,4.0,4.0,78,0.00,,---,0.00,VWS V14.01,2013-07-04 09:39:00,
2013-07-04 03:44:00,46.7,40.2,29.82,NW,312,4.0,4.0,78,0.00,,---,0.00,VWS V14.01,2013-07-04 09:44:00,
2013-07-04 03:49:00,46.6,40.1,29.82,NW,311,5.0,5.0,78,0.00,,---,0.00,VWS V14.01,2013-07-04 09:49:00,
2013-07-04 03:54:00,46.3,39.8,29.82,NW,312,5.0,6.0,78,0.00,,---,0.00,VWS V14.01,2013-07-04 09:54:00,
2013-07-04 03:59:00,46.0,39.5,29.82,NW,312,4.0,7.0,78,0.00,,---,0.00,VWS V14.01,2013-07-04 09:59:00,
2013-07-04 04:04:00,46.2,39.4,29.82,NW,312,7.0,7.0,77,0.00,,---,0.00,VWS V14.01,2013-07-04 10:04:00,
2013-07-04 04:09:00,46.7,39.5,29.82,NW,312,2.0,2.0,76,0.00,,---,0.00,VWS V14.01,2013-07-04 10:09:00,
2013-07-04 04:14:00,46.9,39.4,29.82,NW,311,0.0,0.0,75,0.00,,---,0.00,VWS V14.01,2013-07-04 10:14:00,
2013-07-04 04:19:00,46.9,39.1,29.82,NW,311,0.0,0.0,74,0.00,,---,0.00,VWS V14.01,2013-07-04 10:19:00,
2013-07-04 04:24:00,47.0,39.2,29.81,NW,311,7.0,7.0,74,0.00,,---,0.00,VWS V14.01,2013-07-04 10:24:00,
2013-07-04 04:29:00,47.0,39.2,29.81,NW,311,5.0,5.0,74,0.00,,---,0.00,VWS V14.01,2013-07-04 10:29:00,
2013-07-04 04:34:00,47.3,40.1,29.81,NW,312,0.0,0.0,76,0.00,,---,0.00,VWS V14.01,2013-07-04 10:34:00,
2013-07-04 04:39:00,47.6,39.0,29.81,NW,312,2.0,2.0,72,0.00,,---,0.00,VWS V14.01,2013-07-04 10:39:00,
2013-07-04 04:44:00,47.7,39.5,29.81,NW,311,0.0,0.0,73,0.00,,---,0.00,VWS V14.01,2013-07-04 10:44:00,
2013-07-04 04:49:00,47.3,40.1,29.81,NW,311,0.0,0.0,76,0.00,,---,0.00,VWS V14.01,2013-07-04 10:49:00,
2013-07-04 04:54:00,46.8,39.3,29.81,NW,312,6.0,6.0,75,0.00,,---,0.00,VWS V14.01,2013-07-04 10:54:00,
2013-07-04 04:59:00,46.4,38.9,29.81,NW,312,2.0,3.0,75,0.00,,---,0.00,VWS V14.01,2013-07-04 10:59:00,
2013-07-04 05:00:00,46.4,38.9,29.81,NW,312,2.0,3.0,75,0.00,,---,0.00,VWS V14.01,2013-07-04 11:00:00,
2013-07-04 05:05:00,46.1,38.6,29.81,NW,314,6.0,9.0,75,0.00,,---,0.00,VWS V14.01,2013-07-04 11:05:00,
2013-07-04 05:10:00,45.8,38.7,29.81,NW,314,2.0,3.0,76,0.00,,---,0.00,VWS V14.01,2013-07-04 11:10:00,
2013-07-04 05:15:00,45.7,38.9,29.81,NW,314,0.0,0.0,77,0.00,,---,0.00,VWS V14.01,2013-07-04 11:15:00,
2013-07-04 05:20:00,45.5,39.0,29.81,NW,314,0.0,0.0,78,0.00,,---,0.00,VWS V14.01,2013-07-04 11:20:00,
2013-07-04 05:25:00,45.2,39.1,29.82,NW,314,1.0,2.0,79,0.00,,---,0.00,VWS V14.01,2013-07-04 11:25:00,
2013-07-04 05:30:00,44.7,39.2,29.82,NW,314,4.0,4.0,81,0.00,,---,0.00,VWS V14.01,2013-07-04 11:30:00,
2013-07-04 05:35:00,44.4,38.9,29.82,NW,314,4.0,4.0,81,0.00,,---,0.00,VWS V14.01,2013-07-04 11:35:00,
2013-07-04 05:40:00,44.3,38.8,29.82,NW,314,6.0,7.0,81,0.00,,---,0.00,VWS V14.01,2013-07-04 11:40:00,
2013-07-04 05:45:00,44.0,38.5,29.81,NW,314,6.0,6.0,81,0.00,,---,0.00,VWS V14.01,2013-07-04 11:45:00,
2013-07-04 05:50:00,43.8,38.7,29.81,NW,314,6.0,6.0,82,0.00,,---,0.00,VWS V14.01,2013-07-04 11:50:00,
2013-07-04 05:55:00,43.5,38.4,29.82,NW,314,1.0,3.0,82,0.00,,---,0.00,VWS V14.01,2013-07-04 11:55:00,
2013-07-04 06:00:00,43.5,38.4,29.82,NW,314,0.0,0.0,82,0.00,,---,0.00,VWS V14.01,2013-07-04 12:00:00,
2013-07-04 06:05:00,43.4,38.3,29.82,NW,314,3.0,3.0,82,0.00,,---,0.00,VWS V14.01,2013-07-04 12:05:00,
2013-07-04 06:10:00,43.3,38.2,29.82,NW,314,5.0,7.0,82,0.00,,---,0.00,VWS V14.01,2013-07-04 12:10:00,
2013-07-04 06:15:00,43.3,37.9,29.83,NW,314,0.0,0.0,81,0.00,,---,0.00,VWS V14.01,2013-07-04 12:15:00,
2013-07-04 06:20:00,43.3,38.2,29.83,NW,314,0.0,0.0,82,0.00,,---,0.00,VWS V14.01,2013-07-04 12:20:00,
2013-07-04 06:25:00,43.2,38.1,29.83,NW,314,0.0,0.0,82,0.00,,---,0.00,VWS V14.01,2013-07-04 12:25:00,
2013-07-04 06:30:00,43.2,38.1,29.83,NW,314,4.0,4.0,82,0.00,,---,0.00,VWS V14.01,2013-07-04 12:30:00,
2013-07-04 06:35:00,43.6,38.8,29.83,NW,314,3.0,5.0,83,0.00,,---,0.00,VWS V14.01,2013-07-04 12:35:00,
2013-07-04 06:40:00,43.8,38.7,29.83,NW,314,0.0,0.0,82,0.00,,---,0.00,VWS V14.01,2013-07-04 12:40:00,
2013-07-04 06:45:00,44.1,38.7,29.83,NW,314,0.0,0.0,81,0.00,,---,0.00,VWS V14.01,2013-07-04 12:45:00,
2013-07-04 06:50:00,44.2,38.8,29.83,NW,314,0.0,0.0,81,0.00,,---,0.00,VWS V14.01,2013-07-04 12:50:00,
2013-07-04 06:55:00,44.5,38.7,29.83,NW,314,0.0,0.0,80,0.00,,---,0.00,VWS V14.01,2013-07-04 12:55:00,
2013-07-04 07:00:00,44.6,38.8,29.83,NW,314,0.0,0.0,80,0.00,,---,0.00,VWS V14.01,2013-07-04 13:00:00,
2013-07-04 07:05:00,44.7,39.2,29.84,NW,314,0.0,0.0,81,0.00,,---,0.00,VWS V14.01,2013-07-04 13:05:00,
2013-07-04 07:10:00,44.8,39.0,29.84,NW,314,0.0,0.0,80,0.00,,---,0.00,VWS V14.01,2013-07-04 13:10:00,
2013-07-04 07:15:00,44.8,39.0,29.84,NW,314,0.0,0.0,80,0.00,,---,0.00,VWS V14.01,2013-07-04 13:15:00,
2013-07-04 07:20:00,44.9,39.1,29.84,WSW,246,0.0,0.0,80,0.00,,---,0.00,VWS V14.01,2013-07-04 13:20:00,
2013-07-04 07:25:00,44.9,39.1,29.84,WSW,246,0.0,0.0,80,0.00,,---,0.00,VWS V14.01,2013-07-04 13:25:00,
2013-07-04 07:30:00,44.8,39.0,29.84,WSW,246,0.0,0.0,80,0.00,,---,0.00,VWS V14.01,2013-07-04 13:30:00,
2013-07-04 07:35:00,44.8,39.3,29.84,WSW,246,0.0,0.0,81,0.00,,---,0.00,VWS V14.01,2013-07-04 13:35:00,
2013-07-04 07:40:00,44.7,38.9,29.84,WSW,246,0.0,0.0,80,0.00,,---,0.00,VWS V14.01,2013-07-04 13:40:00,
2013-07-04 07:45:00,44.7,38.9,29.84,WSW,246,0.0,0.0,80,0.00,,---,0.00,VWS V14.01,2013-07-04 13:45:00,
2013-07-04 07:50:00,45.4,39.9,29.84,WSW,246,3.0,3.0,81,0.00,,---,0.00,VWS V14.01,2013-07-04 13:50:00,
2013-07-04 07:55:00,46.5,40.3,29.84,WSW,246,0.0,0.0,79,0.00,,---,0.00,VWS V14.01,2013-07-04 13:55:00,
2013-07-04 08:00:00,47.5,41.0,29.83,WSW,246,0.0,0.0,78,0.00,,---,0.00,VWS V14.01,2013-07-04 14:00:00,
2013-07-04 08:05:00,48.7,41.5,29.83,WSW,246,0.0,0.0,76,0.00,,---,0.00,VWS V14.01,2013-07-04 14:05:00,
2013-07-04 08:10:00,49.9,41.6,29.83,WSW,246,0.0,0.0,73,0.00,,---,0.00,VWS V14.01,2013-07-04 14:10:00,
2013-07-04 08:15:00,51.0,42.7,29.83,WSW,246,0.0,0.0,73,0.00,,---,0.00,VWS V14.01,2013-07-04 14:15:00,
2013-07-04 08:20:00,52.1,42.2,29.83,WSW,246,0.0,0.0,69,0.00,,---,0.00,VWS V14.01,2013-07-04 14:20:00,
2013-07-04 08:25:00,53.0,41.6,29.83,WSW,246,2.0,2.0,65,0.00,,---,0.00,VWS V14.01,2013-07-04 14:25:00,
2013-07-04 08:30:00,53.8,42.3,29.83,WSW,245,0.0,3.0,65,0.00,,---,0.00,VWS V14.01,2013-07-04 14:30:00,
2013-07-04 08:35:00,54.6,43.1,29.83,SW,234,0.0,0.0,65,0.00,,---,0.00,VWS V14.01,2013-07-04 14:35:00,
2013-07-04 08:40:00,55.4,44.2,29.82,SW,234,0.0,0.0,66,0.00,,---,0.00,VWS V14.01,2013-07-04 14:40:00,
2013-07-04 08:45:00,56.3,43.5,29.82,SW,234,0.0,0.0,62,0.00,,---,0.00,VWS V14.01,2013-07-04 14:45:00,
2013-07-04 08:50:00,57.2,43.5,29.82,SW,234,0.0,0.0,60,0.00,,---,0.00,VWS V14.01,2013-07-04 14:50:00,
2013-07-04 08:55:00,57.9,43.7,29.82,SW,234,0.0,0.0,59,0.00,,---,0.00,VWS V14.01,2013-07-04 14:55:00,
2013-07-04 09:00:00,58.9,43.2,29.82,SW,234,0.0,0.0,56,0.00,,---,0.00,VWS V14.01,2013-07-04 15:00:00,
2013-07-04 09:05:00,59.5,44.3,29.81,SW,234,0.0,0.0,57,0.00,,---,0.00,VWS V14.01,2013-07-04 15:05:00,
2013-07-04 09:10:00,60.1,42.9,29.81,SW,234,0.0,0.0,53,0.00,,---,0.00,VWS V14.01,2013-07-04 15:10:00,
2013-07-04 09:15:00,60.8,45.0,29.81,SW,234,1.0,1.0,56,0.00,,---,0.00,VWS V14.01,2013-07-04 15:15:00,
2013-07-04 09:20:00,61.1,40.7,29.81,SW,234,0.0,0.0,47,0.00,,---,0.00,VWS V14.01,2013-07-04 15:20:00,
2013-07-04 09:25:00,61.5,42.2,29.81,SW,234,0.0,0.0,49,0.00,,---,0.00,VWS V14.01,2013-07-04 15:25:00,
2013-07-04 09:30:00,61.6,42.8,29.81,SW,234,0.0,0.0,50,0.00,,---,0.00,VWS V14.01,2013-07-04 15:30:00,
2013-07-04 09:35:00,62.1,43.8,29.80,SW,234,0.0,1.0,51,0.00,,---,0.00,VWS V14.01,2013-07-04 15:35:00,
2013-07-04 09:40:00,62.6,44.2,29.80,SW,234,0.0,0.0,51,0.00,,---,0.00,VWS V14.01,2013-07-04 15:40:00,
2013-07-04 09:45:00,63.4,43.4,29.80,SW,234,0.0,0.0,48,0.00,,---,0.00,VWS V14.01,2013-07-04 15:45:00,
2013-07-04 09:50:00,64.7,43.5,29.80,SW,234,0.0,0.0,46,0.00,,---,0.00,VWS V14.01,2013-07-04 15:50:00,
2013-07-04 09:56:00,65.6,43.1,29.80,SW,234,0.0,2.0,44,0.00,,---,0.00,VWS V14.01,2013-07-04 15:56:00,
2013-07-04 10:01:00,66.1,43.0,29.79,SW,234,0.0,0.0,43,0.00,,---,0.00,VWS V14.01,2013-07-04 16:01:00,
2013-07-04 10:06:00,66.6,42.8,29.79,SW,234,0.0,0.0,42,0.00,,---,0.00,VWS V14.01,2013-07-04 16:06:00,
2013-07-04 10:11:00,67.2,44.0,29.79,SW,234,0.0,0.0,43,0.00,,---,0.00,VWS V14.01,2013-07-04 16:11:00,
2013-07-04 10:16:00,67.4,42.9,29.78,WSW,237,1.0,1.0,41,0.00,,---,0.00,VWS V14.01,2013-07-04 16:16:00,
2013-07-04 10:21:00,67.7,41.2,29.78,WSW,237,0.0,0.0,38,0.00,,---,0.00,VWS V14.01,2013-07-04 16:21:00,
2013-07-04 10:26:00,68.5,45.8,29.78,WSW,237,2.0,2.0,44,0.00,,---,0.00,VWS V14.01,2013-07-04 16:26:00,
2013-07-04 10:31:00,68.6,42.0,29.78,NNE,14,0.0,4.0,38,0.00,,---,0.00,VWS V14.01,2013-07-04 16:31:00,
2013-07-04 10:36:00,69.1,41.8,29.78,NNE,14,0.0,0.0,37,0.00,,---,0.00,VWS V14.01,2013-07-04 16:36:00,
2013-07-04 10:41:00,70.3,40.6,29.77,North,355,0.0,2.0,34,0.00,,---,0.00,VWS V14.01,2013-07-04 16:41:00,
2013-07-04 10:46:00,71.4,40.8,29.77,SW,223,3.0,5.0,33,0.00,,---,0.00,VWS V14.01,2013-07-04 16:46:00,
2013-07-04 10:51:00,71.4,38.4,29.77,WSW,248,2.0,6.0,30,0.00,,---,0.00,VWS V14.01,2013-07-04 16:51:00,
2013-07-04 10:56:00,70.6,37.7,29.77,WSW,242,1.0,3.0,30,0.00,,---,0.00,VWS V14.01,2013-07-04 16:56:00,
2013-07-04 11:01:00,70.4,40.7,29.76,SW,230,0.0,2.0,34,0.00,,---,0.00,VWS V14.01,2013-07-04 17:01:00,
2013-07-04 11:06:00,71.3,40.0,29.76,SW,227,8.0,9.0,32,0.00,,---,0.00,VWS V14.01,2013-07-04 17:06:00,
2013-07-04 11:11:00,70.3,36.6,29.76,WSW,243,0.0,1.0,29,0.00,,---,0.00,VWS V14.01,2013-07-04 17:11:00,
2013-07-04 11:16:00,70.1,37.3,29.76,SSE,167,3.0,7.0,30,0.00,,---,0.00,VWS V14.01,2013-07-04 17:16:00,
2013-07-04 11:21:00,70.6,39.3,29.76,SSE,167,2.0,4.0,32,0.00,,---,0.00,VWS V14.01,2013-07-04 17:21:00,
2013-07-04 11:26:00,71.2,40.7,29.76,West,265,5.0,6.0,33,0.00,,---,0.00,VWS V14.01,2013-07-04 17:26:00,
2013-07-04 11:31:00,72.1,41.4,29.76,SSW,205,2.0,2.0,33,0.00,,---,0.00,VWS V14.01,2013-07-04 17:31:00,
2013-07-04 11:36:00,72.6,37.7,29.76,SW,214,1.0,6.0,28,0.00,,---,0.00,VWS V14.01,2013-07-04 17:36:00,
2013-07-04 11:41:00,72.6,40.3,29.76,SW,227,2.0,4.0,31,0.00,,---,0.00,VWS V14.01,2013-07-04 17:41:00,
2013-07-04 11:46:00,73.6,40.3,29.76,SW,227,0.0,0.0,30,0.00,,---,0.00,VWS V14.01,2013-07-04 17:46:00,
2013-07-04 11:51:00,73.2,39.9,29.76,South,182,7.0,7.0,30,0.00,,---,0.00,VWS V14.01,2013-07-04 17:51:00,
2013-07-04 11:56:00,72.6,37.7,29.76,WSW,246,5.0,6.0,28,0.00,,---,0.00,VWS V14.01,2013-07-04 17:56:00,
2013-07-04 12:01:00,72.3,38.3,29.76,SW,223,0.0,6.0,29,0.00,,---,0.00,VWS V14.01,2013-07-04 18:01:00,
2013-07-04 12:06:00,73.0,38.0,29.76,SW,229,5.0,6.0,28,0.00,,---,0.00,VWS V14.01,2013-07-04 18:06:00,
2013-07-04 12:11:00,73.3,36.4,29.76,SW,233,6.0,6.0,26,0.00,,---,0.00,VWS V14.01,2013-07-04 18:11:00,
2013-07-04 12:16:00,73.0,36.1,29.76,West,267,0.0,4.0,26,0.00,,---,0.00,VWS V14.01,2013-07-04 18:16:00,
2013-07-04 12:21:00,73.7,36.7,29.76,West,264,4.0,4.0,26,0.00,,---,0.00,VWS V14.01,2013-07-04 18:21:00,
2013-07-04 12:26:00,74.7,38.5,29.75,SSW,200,10.0,10.0,27,0.00,,---,0.00,VWS V14.01,2013-07-04 18:26:00,
2013-07-04 12:32:00,74.1,36.1,29.75,SW,224,2.0,6.0,25,0.00,,---,0.00,VWS V14.01,2013-07-04 18:32:00,
2013-07-04 12:37:00,73.6,33.5,29.76,SW,227,0.0,0.0,23,0.00,,---,0.00,VWS V14.01,2013-07-04 18:37:00,
2013-07-04 12:42:00,73.5,34.5,29.76,West,275,3.0,3.0,24,0.00,,---,0.00,VWS V14.01,2013-07-04 18:42:00,
2013-07-04 12:47:00,74.1,35.0,29.76,WNW,286,1.0,1.0,24,0.00,,---,0.00,VWS V14.01,2013-07-04 18:47:00,
2013-07-04 12:52:00,73.5,36.5,29.76,North,5,6.0,7.0,26,0.00,,---,0.00,VWS V14.01,2013-07-04 18:52:00,
2013-07-04 12:57:00,73.5,39.3,29.76,NNE,21,0.0,5.0,29,0.00,,---,0.00,VWS V14.01,2013-07-04 18:57:00,
2013-07-04 13:02:00,73.5,36.5,29.75,NNE,23,0.0,1.0,26,0.00,,---,0.00,VWS V14.01,2013-07-04 19:02:00,
2013-07-04 13:07:00,74.3,36.2,29.75,NNE,24,1.0,1.0,25,0.00,,---,0.00,VWS V14.01,2013-07-04 19:07:00,
2013-07-04 13:12:00,74.4,35.3,29.75,NNE,32,2.0,2.0,24,0.00,,---,0.00,VWS V14.01,2013-07-04 19:12:00,
2013-07-04 13:17:00,73.8,33.7,29.75,ENE,65,1.0,3.0,23,0.00,,---,0.00,VWS V14.01,2013-07-04 19:17:00,
2013-07-04 13:22:00,73.7,37.7,29.75,ENE,58,2.0,2.0,27,0.00,,---,0.00,VWS V14.01,2013-07-04 19:22:00,
2013-07-04 13:27:00,75.3,37.1,29.75,WSW,252,5.0,7.0,25,0.00,,---,0.00,VWS V14.01,2013-07-04 19:27:00,
2013-07-04 13:32:00,75.2,39.9,29.75,WSW,238,1.0,5.0,28,0.00,,---,0.00,VWS V14.01,2013-07-04 19:32:00,
2013-07-04 13:37:00,75.4,38.2,29.74,SW,236,5.0,5.0,26,0.00,,---,0.00,VWS V14.01,2013-07-04 19:37:00,
2013-07-04 13:42:00,75.8,38.5,29.74,SW,227,6.0,8.0,26,0.00,,---,0.00,VWS V14.01,2013-07-04 19:42:00,
2013-07-04 13:47:00,75.5,39.2,29.74,WSW,248,6.0,6.0,27,0.00,,---,0.00,VWS V14.01,2013-07-04 19:47:00,
2013-07-04 13:52:00,75.9,37.6,29.74,WSW,243,5.0,5.0,25,0.00,,---,0.00,VWS V14.01,2013-07-04 19:52:00,
2013-07-04 13:57:00,76.2,37.8,29.74,SW,215,3.0,9.0,25,0.00,,---,0.00,VWS V14.01,2013-07-04 19:57:00,
2013-07-04 14:02:00,75.8,37.5,29.74,West,259,1.0,6.0,25,0.00,,---,0.00,VWS V14.01,2013-07-04 20:02:00,
2013-07-04 14:07:00,75.8,36.5,29.74,SSW,203,9.0,9.0,24,0.00,,---,0.00,VWS V14.01,2013-07-04 20:07:00,
2013-07-04 14:12:00,75.4,40.1,29.73,SW,221,13.0,13.0,28,0.00,,---,0.00,VWS V14.01,2013-07-04 20:12:00,
2013-07-04 14:17:00,75.9,38.6,29.73,SSW,211,8.0,9.0,26,0.00,,---,0.00,VWS V14.01,2013-07-04 20:17:00,
2013-07-04 14:22:00,76.3,37.9,29.73,WSW,257,2.0,8.0,25,0.00,,---,0.00,VWS V14.01,2013-07-04 20:22:00,
2013-07-04 14:27:00,75.8,40.4,29.73,SW,215,9.0,10.0,28,0.00,,---,0.00,VWS V14.01,2013-07-04 20:27:00,
2013-07-04 14:32:00,74.9,37.7,29.73,SSW,198,1.0,1.0,26,0.00,,---,0.00,VWS V14.01,2013-07-04 20:32:00,
2013-07-04 14:37:00,74.8,38.6,29.73,West,273,3.0,3.0,27,0.00,,---,0.00,VWS V14.01,2013-07-04 20:37:00,
2013-07-04 14:42:00,75.7,38.4,29.72,SW,217,3.0,3.0,26,0.00,,---,0.00,VWS V14.01,2013-07-04 20:42:00,
2013-07-04 14:47:00,76.7,39.3,29.72,West,271,7.0,8.0,26,0.00,,---,0.00,VWS V14.01,2013-07-04 20:47:00,
2013-07-04 14:52:00,76.9,40.4,29.72,WSW,258,11.0,11.0,27,0.00,,---,0.00,VWS V14.01,2013-07-04 20:52:00,
2013-07-04 14:57:00,76.9,37.4,29.72,WNW,296,5.0,5.0,24,0.00,,---,0.00,VWS V14.01,2013-07-04 20:57:00,
2013-07-04 15:02:00,76.0,37.7,29.72,WNW,301,3.0,3.0,25,0.00,,---,0.00,VWS V14.01,2013-07-04 21:02:00,
2013-07-04 15:07:00,75.7,37.4,29.71,WSW,251,9.0,9.0,25,0.00,,---,0.00,VWS V14.01,2013-07-04 21:07:00,
2013-07-04 15:12:00,75.7,39.4,29.71,West,266,5.0,10.0,27,0.00,,---,0.00,VWS V14.01,2013-07-04 21:12:00,
2013-07-04 15:17:00,75.3,39.0,29.71,WSW,249,8.0,8.0,27,0.00,,---,0.00,VWS V14.01,2013-07-04 21:17:00,
2013-07-04 15:22:00,75.9,36.5,29.71,West,275,6.0,7.0,24,0.00,,---,0.00,VWS V14.01,2013-07-04 21:22:00,
2013-07-04 15:27:00,75.7,36.4,29.70,West,259,0.0,3.0,24,0.00,,---,0.00,VWS V14.01,2013-07-04 21:27:00,
2013-07-04 15:32:00,76.5,37.1,29.70,West,273,2.0,6.0,24,0.00,,---,0.00,VWS V14.01,2013-07-04 21:32:00,
2013-07-04 15:33:00,76.5,37.1,29.70,West,273,2.0,6.0,24,0.00,,---,0.00,VWS V14.01,2013-07-04 21:33:00,
2013-07-04 15:38:00,77.1,39.6,29.69,West,264,13.0,16.0,26,0.00,,---,0.00,VWS V14.01,2013-07-04 21:38:00,
2013-07-04 15:43:00,78.1,39.5,29.70,West,267,9.0,15.0,25,0.00,,---,0.00,VWS V14.01,2013-07-04 21:43:00,
2013-07-04 15:48:00,77.9,38.2,29.69,West,265,9.0,9.0,24,0.00,,---,0.00,VWS V14.01,2013-07-04 21:48:00,
2013-07-04 15:53:00,78.1,37.3,29.69,West,267,9.0,12.0,23,0.00,,---,0.00,VWS V14.01,2013-07-04 21:53:00,
2013-07-04 15:58:00,77.6,38.0,29.69,WSW,254,9.0,11.0,24,0.00,,---,0.00,VWS V14.01,2013-07-04 21:58:00,
2013-07-04 16:03:00,76.9,38.4,29.69,WSW,254,1.0,6.0,25,0.00,,---,0.00,VWS V14.01,2013-07-04 22:03:00,
2013-07-04 16:08:00,76.9,39.4,29.68,West,259,6.0,12.0,26,0.00,,---,0.00,VWS V14.01,2013-07-04 22:08:00,
2013-07-04 16:13:00,76.8,39.3,29.68,West,261,13.0,19.0,26,0.00,,---,0.00,VWS V14.01,2013-07-04 22:13:00,
2013-07-04 16:18:00,75.9,39.6,29.69,West,273,13.0,15.0,27,0.00,,---,0.00,VWS V14.01,2013-07-04 22:18:00,
2013-07-04 16:23:00,75.3,38.1,29.68,West,260,17.0,17.0,26,0.00,,---,0.00,VWS V14.01,2013-07-04 22:23:00,
2013-07-04 16:28:00,74.7,39.5,29.68,West,270,10.0,14.0,28,0.00,,---,0.00,VWS V14.01,2013-07-04 22:28:00,
2013-07-04 16:33:00,74.2,39.9,29.68,WNW,285,10.0,11.0,29,0.00,,---,0.00,VWS V14.01,2013-07-04 22:33:00,
2013-07-04 16:38:00,74.1,39.0,29.68,WNW,293,9.0,12.0,28,0.00,,---,0.00,VWS V14.01,2013-07-04 22:38:00,
2013-07-04 16:43:00,73.9,40.5,29.68,West,269,12.0,12.0,30,0.00,,---,0.00,VWS V14.01,2013-07-04 22:43:00,
2013-07-04 16:48:00,73.9,39.7,29.68,WSW,251,11.0,14.0,29,0.00,,---,0.00,VWS V14.01,2013-07-04 22:48:00,
2013-07-04 16:53:00,73.7,41.2,29.67,WNW,286,5.0,7.0,31,0.00,,---,0.00,VWS V14.01,2013-07-04 22:53:00,
2013-07-04 16:58:00,73.5,41.9,29.68,WNW,292,6.0,8.0,32,0.00,,---,0.00,VWS V14.01,2013-07-04 22:58:00,
2013-07-04 17:03:00,73.3,40.0,29.67,WNW,298,6.0,10.0,30,0.00,,---,0.00,VWS V14.01,2013-07-04 23:03:00,
2013-07-04 17:08:00,73.4,38.3,29.67,West,267,7.0,10.0,28,0.00,,---,0.00,VWS V14.01,2013-07-04 23:08:00,
2013-07-04 17:13:00,73.7,41.2,29.67,West,281,10.0,11.0,31,0.00,,---,0.00,VWS V14.01,2013-07-04 23:13:00,
2013-07-04 17:18:00,74.2,42.5,29.67,West,271,12.0,14.0,32,0.00,,---,0.00,VWS V14.01,2013-07-04 23:18:00,
2013-07-04 17:23:00,74.7,40.4,29.67,West,280,14.0,14.0,29,0.00,,---,0.00,VWS V14.01,2013-07-04 23:23:00,
2013-07-04 17:28:00,74.9,39.6,29.67,West,264,10.0,11.0,28,0.00,,---,0.00,VWS V14.01,2013-07-04 23:28:00,
2013-07-04 17:33:00,75.1,37.9,29.67,WNW,283,6.0,16.0,26,0.00,,---,0.00,VWS V14.01,2013-07-04 23:33:00,
2013-07-04 17:38:00,74.4,39.2,29.66,West,272,7.0,11.0,28,0.00,,---,0.00,VWS V14.01,2013-07-04 23:38:00,
2013-07-04 17:43:00,73.9,40.5,29.66,West,279,6.0,8.0,30,0.00,,---,0.00,VWS V14.01,2013-07-04 23:43:00,
2013-07-04 17:48:00,73.5,40.2,29.66,West,274,8.0,8.0,30,0.00,,---,0.00,VWS V14.01,2013-07-04 23:48:00,
2013-07-04 17:53:00,73.2,41.6,29.66,West,276,6.0,12.0,32,0.00,,---,0.00,VWS V14.01,2013-07-04 23:53:00,
2013-07-04 17:58:00,73.1,41.5,29.66,West,279,10.0,10.0,32,0.00,,---,0.00,VWS V14.01,2013-07-04 23:58:00,
2013-07-04 18:03:00,73.0,39.8,29.66,WNW,289,9.0,10.0,30,0.00,,---,0.00,VWS V14.01,2013-07-05 00:03:00,
2013-07-04 18:08:00,72.6,40.3,29.66,WNW,288,8.0,9.0,31,0.00,,---,0.00,VWS V14.01,2013-07-05 00:08:00,
2013-07-04 18:13:00,72.2,40.7,29.66,WNW,295,9.0,9.0,32,0.00,,---,0.00,VWS V14.01,2013-07-05 00:13:00,
2013-07-04 18:18:00,72.1,42.2,29.66,WNW,295,6.0,6.0,34,0.00,,---,0.00,VWS V14.01,2013-07-05 00:18:00,
2013-07-04 18:23:00,71.9,41.3,29.66,WNW,285,8.0,9.0,33,0.00,,---,0.00,VWS V14.01,2013-07-05 00:23:00,
2013-07-04 18:28:00,71.8,40.4,29.66,West,280,9.0,9.0,32,0.00,,---,0.00,VWS V14.01,2013-07-05 00:28:00,
2013-07-04 18:33:00,71.6,40.2,29.66,WNW,283,10.0,10.0,32,0.00,,---,0.00,VWS V14.01,2013-07-05 00:33:00,
2013-07-04 18:38:00,71.7,40.3,29.66,WNW,290,10.0,10.0,32,0.00,,---,0.00,VWS V14.01,2013-07-05 00:38:00,
2013-07-04 18:43:00,71.9,41.3,29.66,WNW,290,7.0,8.0,33,0.00,,---,0.00,VWS V14.01,2013-07-05 00:43:00,
2013-07-04 18:48:00,72.2,41.5,29.66,WNW,288,9.0,9.0,33,0.00,,---,0.00,VWS V14.01,2013-07-05 00:48:00,
2013-07-04 18:53:00,72.5,41.8,29.66,WNW,289,9.0,9.0,33,0.00,,---,0.00,VWS V14.01,2013-07-05 00:53:00,
2013-07-04 18:58:00,72.6,39.4,29.66,West,280,7.0,8.0,30,0.00,,---,0.00,VWS V14.01,2013-07-05 00:58:00,
2013-07-04 19:03:00,72.4,41.7,29.66,West,279,6.0,6.0,33,0.00,,---,0.00,VWS V14.01,2013-07-05 01:03:00,
2013-07-04 19:08:00,72.3,40.8,29.66,WNW,300,8.0,10.0,32,0.00,,---,0.00,VWS V14.01,2013-07-05 01:08:00,
2013-07-04 19:13:00,72.1,42.2,29.66,WNW,300,5.0,5.0,34,0.00,,---,0.00,VWS V14.01,2013-07-05 01:13:00,
2013-07-04 19:18:00,71.6,41.8,29.66,WNW,300,7.0,8.0,34,0.00,,---,0.00,VWS V14.01,2013-07-05 01:18:00,
2013-07-04 19:23:00,71.4,42.3,29.66,WNW,300,5.0,5.0,35,0.00,,---,0.00,VWS V14.01,2013-07-05 01:23:00,
2013-07-04 19:28:00,71.2,41.4,29.66,WNW,300,4.0,5.0,34,0.00,,---,0.00,VWS V14.01,2013-07-05 01:28:00,
2013-07-04 19:29:00,71.1,41.3,29.66,WNW,300,6.0,6.0,34,0.00,,---,0.00,VWS V14.01,2013-07-05 01:29:00,
2013-07-04 19:34:00,70.8,42.5,29.66,WNW,300,4.0,5.0,36,0.00,,---,0.00,VWS V14.01,2013-07-05 01:34:00,
2013-07-04 19:39:00,70.4,42.2,29.67,WNW,300,5.0,5.0,36,0.00,,---,0.00,VWS V14.01,2013-07-05 01:39:00,
2013-07-04 19:44:00,69.7,40.8,29.67,WNW,300,4.0,7.0,35,0.00,,---,0.00,VWS V14.01,2013-07-05 01:44:00,
2013-07-04 19:49:00,69.4,40.6,29.67,WNW,300,4.0,5.0,35,0.00,,---,0.00,VWS V14.01,2013-07-05 01:49:00,
2013-07-04 19:54:00,69.3,41.2,29.67,WNW,300,6.0,7.0,36,0.00,,---,0.00,VWS V14.01,2013-07-05 01:54:00,
2013-07-04 19:59:00,69.0,42.4,29.67,WNW,300,3.0,5.0,38,0.00,,---,0.00,VWS V14.01,2013-07-05 01:59:00,
2013-07-04 20:04:00,68.5,41.2,29.67,WNW,300,5.0,5.0,37,0.00,,---,0.00,VWS V14.01,2013-07-05 02:04:00,
2013-07-04 20:09:00,68.2,41.0,29.67,WNW,300,2.0,5.0,37,0.00,,---,0.00,VWS V14.01,2013-07-05 02:09:00,
2013-07-04 20:14:00,67.8,40.6,29.67,WNW,300,8.0,10.0,37,0.00,,---,0.00,VWS V14.01,2013-07-05 02:14:00,
2013-07-04 20:19:00,67.6,40.4,29.67,WNW,300,5.0,7.0,37,0.00,,---,0.00,VWS V14.01,2013-07-05 02:19:00,
2013-07-04 20:24:00,66.6,43.4,29.67,WNW,300,5.0,6.0,43,0.00,,---,0.00,VWS V14.01,2013-07-05 02:24:00,
2013-07-04 20:29:00,64.9,42.5,29.67,WNW,300,3.0,5.0,44,0.00,,---,0.00,VWS V14.01,2013-07-05 02:29:00,
2013-07-04 20:34:00,63.6,42.5,29.67,WNW,300,5.0,5.0,46,0.00,,---,0.00,VWS V14.01,2013-07-05 02:34:00,
2013-07-04 20:39:00,63.0,41.3,29.67,WNW,300,3.0,3.0,45,0.00,,---,0.00,VWS V14.01,2013-07-05 02:39:00,
2013-07-04 20:44:00,62.6,42.1,29.67,WNW,300,7.0,7.0,47,0.00,,---,0.00,VWS V14.01,2013-07-05 02:44:00,
2013-07-04 20:49:00,62.3,41.8,29.68,WNW,300,6.0,7.0,47,0.00,,---,0.00,VWS V14.01,2013-07-05 02:49:00,
2013-07-04 20:54:00,61.8,42.5,29.68,WNW,300,6.0,6.0,49,0.00,,---,0.00,VWS V14.01,2013-07-05 02:54:00,
2013-07-04 20:59:00,61.1,42.3,29.68,WNW,300,5.0,5.0,50,0.00,,---,0.00,VWS V14.01,2013-07-05 02:59:00,
2013-07-04 21:04:00,60.4,41.7,29.68,WNW,300,3.0,5.0,50,0.00,,---,0.00,VWS V14.01,2013-07-05 03:04:00,
2013-07-04 21:09:00,60.0,42.3,29.68,WNW,300,3.0,3.0,52,0.00,,---,0.00,VWS V14.01,2013-07-05 03:09:00,
2013-07-04 21:14:00,59.4,42.8,29.68,WNW,300,7.0,7.0,54,0.00,,---,0.00,VWS V14.01,2013-07-05 03:14:00,
2013-07-04 21:19:00,58.7,42.6,29.68,WNW,300,6.0,7.0,55,0.00,,---,0.00,VWS V14.01,2013-07-05 03:19:00,
2013-07-04 21:24:00,58.3,42.7,29.68,WNW,302,10.0,10.0,56,0.00,,---,0.00,VWS V14.01,2013-07-05 03:24:00,
2013-07-04 21:29:00,58.0,41.9,29.68,NW,304,7.0,8.0,55,0.00,,---,0.00,VWS V14.01,2013-07-05 03:29:00,
2013-07-04 21:34:00,58.3,42.2,29.68,NW,304,4.0,5.0,55,0.00,,---,0.00,VWS V14.01,2013-07-05 03:34:00,
2013-07-04 21:39:00,57.8,43.1,29.68,NW,304,7.0,8.0,58,0.00,,---,0.00,VWS V14.01,2013-07-05 03:39:00,
2013-07-04 21:44:00,57.3,42.2,29.69,NW,305,8.0,8.0,57,0.00,,---,0.00,VWS V14.01,2013-07-05 03:44:00,
2013-07-04 21:49:00,57.1,42.5,29.69,NW,324,8.0,10.0,58,0.00,,---,0.00,VWS V14.01,2013-07-05 03:49:00,
2013-07-04 21:54:00,56.9,42.3,29.69,NNW,328,9.0,9.0,58,0.00,,---,0.00,VWS V14.01,2013-07-05 03:54:00,
2013-07-04 21:59:00,57.1,42.5,29.69,NNW,329,7.0,7.0,58,0.00,,---,0.00,VWS V14.01,2013-07-05 03:59:00,
2013-07-04 22:01:00,57.2,42.6,29.69,NNW,329,6.0,7.0,58,0.00,,---,0.00,VWS V14.01,2013-07-05 04:01:00,
2013-07-04 22:02:00,57.2,42.1,29.69,NNW,329,6.0,7.0,57,0.00,,---,0.00,VWS V14.01,2013-07-05 04:02:00,
2013-07-04 22:07:00,57.3,42.2,29.69,NNW,329,7.0,7.0,57,0.00,,---,0.00,VWS V14.01,2013-07-05 04:07:00,
2013-07-04 22:12:00,57.1,42.5,29.70,NNW,329,5.0,5.0,58,0.00,,---,0.00,VWS V14.01,2013-07-05 04:12:00,
2013-07-04 22:17:00,56.9,42.3,29.70,NNW,329,0.0,0.0,58,0.00,,---,0.00,VWS V14.01,2013-07-05 04:17:00,
2013-07-04 22:22:00,57.0,41.9,29.70,NNW,329,5.0,5.0,57,0.00,,---,0.00,VWS V14.01,2013-07-05 04:22:00,
2013-07-04 22:27:00,57.8,42.2,29.70,NNW,329,0.0,0.0,56,0.00,,---,0.00,VWS V14.01,2013-07-05 04:27:00,
2013-07-04 22:32:00,58.0,41.9,29.70,NNW,329,0.0,0.0,55,0.00,,---,0.00,VWS V14.01,2013-07-05 04:32:00,
2013-07-04 22:37:00,57.8,43.1,29.70,NNW,329,6.0,6.0,58,0.00,,---,0.00,VWS V14.01,2013-07-05 04:37:00,
2013-07-04 22:42:00,56.9,43.2,29.70,NNW,329,5.0,6.0,60,0.00,,---,0.00,VWS V14.01,2013-07-05 04:42:00,
2013-07-04 22:47:00,56.0,42.3,29.70,NNW,329,6.0,7.0,60,0.00,,---,0.00,VWS V14.01,2013-07-05 04:47:00,
2013-07-04 22:52:00,55.8,42.1,29.71,NNW,329,4.0,5.0,60,0.00,,---,0.00,VWS V14.01,2013-07-05 04:52:00,
2013-07-04 22:57:00,55.8,41.3,29.70,NNW,329,0.0,0.0,58,0.00,,---,0.00,VWS V14.01,2013-07-05 04:57:00,
2013-07-04 23:02:00,55.9,41.8,29.70,NNW,329,0.0,0.0,59,0.00,,---,0.00,VWS V14.01,2013-07-05 05:02:00,
2013-07-04 23:07:00,56.0,41.5,29.71,NNW,329,0.0,0.0,58,0.00,,---,0.00,VWS V14.01,2013-07-05 05:07:00,
2013-07-04 23:12:00,56.0,41.5,29.70,NNW,329,0.0,0.0,58,0.00,,---,0.00,VWS V14.01,2013-07-05 05:12:00,
2013-07-04 23:17:00,56.0,41.5,29.71,NNW,329,0.0,0.0,58,0.00,,---,0.00,VWS V14.01,2013-07-05 05:17:00,
2013-07-04 23:22:00,55.9,40.9,29.70,NNW,329,0.0,0.0,57,0.00,,---,0.00,VWS V14.01,2013-07-05 05:22:00,
2013-07-04 23:27:00,56.0,42.3,29.70,NNW,329,0.0,0.0,60,0.00,,---,0.00,VWS V14.01,2013-07-05 05:27:00,
2013-07-04 23:32:00,56.0,41.9,29.70,NNW,329,3.0,3.0,59,0.00,,---,0.00,VWS V14.01,2013-07-05 05:32:00,
2013-07-04 23:37:00,55.8,42.1,29.70,NNW,329,3.0,3.0,60,0.00,,---,0.00,VWS V14.01,2013-07-05 05:37:00,
2013-07-04 23:42:00,55.5,42.7,29.70,NNW,329,6.0,6.0,62,0.00,,---,0.00,VWS V14.01,2013-07-05 05:42:00,
2013-07-04 23:47:00,55.3,43.3,29.70,NNW,329,8.0,8.0,64,0.00,,---,0.00,VWS V14.01,2013-07-05 05:47:00,
2013-07-04 23:52:00,55.1,44.0,29.70,NNW,329,3.0,6.0,66,0.00,,---,0.00,VWS V14.01,2013-07-05 05:52:00,
2013-07-04 23:57:00,55.1,43.2,29.70,NNW,329,2.0,2.0,64,0.00,,---,0.00,VWS V14.01,2013-07-05 05:57:00,